Hourly Data Report for June 05, 2012

All times are specified in Local Standard Time (LST). Add 1 hour to adjust for Daylight Saving Time where and when it is observed.

MONCTON INTL A
NEW BRUNSWICK

46°06'44.000" N
64°40'43.000" W
70.70 m
8103201
71705
YQM

Related Data

No related data is available for this station

Download Data

Hourly Data (June 2012)
Hourly Data Report for June 5, 2012
Temp Definition
°C
Dew Point Temp Definition
°C
Rel Hum Definition
%
Wind Dir Definition
10's deg

Wind Spd Definition
km/h
Visibility Definition
km
Stn Press Definition
kPa
Hmdx Definition


Wind Chill Definition


Weather Definition


TIME
00:00 Legend Double Dagger 7.8 6.9 94 0 23 10.0 100.00     Rain Showers
01:00 Legend Double Dagger 7.7 7.1 96 36 19 10.0 100.00     Rain Showers
02:00 Legend Double Dagger 7.8 7.4 97 0 18 10.0 99.98     Rain Showers
03:00 Legend Double Dagger 7.8 7.4 97 35 20 10.0 99.96     LegendNANA
04:00 Legend Double Dagger 7.9 7.5 97 35 19 10.0 99.95     Rain Showers
05:00 Legend Double Dagger 8.2 7.5 95 1 21 10.0 99.96     Rain Showers
06:00 Legend Double Dagger 8.2 7.5 95 2 22 10.0 100.00     Rain Showers
07:00 Legend Double Dagger 8.4 7.2 92 1 26 10.0 100.03     Rain Showers
08:00 Legend Double Dagger 8.1 7.0 93 3 28 10.0 100.09     Rain Showers
09:00 Legend Double Dagger 8.1 7.4 95 3 19 6.4 100.11     Moderate Rain Showers,Fog
10:00 Legend Double Dagger 8.4 7.7 95 2 21 6.4 100.13     Rain Showers,Fog
11:00 Legend Double Dagger 8.5 7.8 95 2 18 10.0 100.19     Rain Showers
12:00 Legend Double Dagger 8.7 7.8 94 1 25 10.0 100.24     Rain Showers
13:00 Legend Double Dagger 9.5 8.4 93 2 27 10.0 100.25     Rain Showers
14:00 Legend Double Dagger 9.3 8.4 94 1 23 10.0 100.25     Rain Showers
15:00 Legend Double Dagger 8.8 7.6 92 1 31 10.0 100.27     Rain Showers
16:00 Legend Double Dagger 8.5 7.4 93 1 33 9.7 100.26     Fog
17:00 Legend Double Dagger 8.4 7.3 93 1 21 8.1 100.26     Fog
18:00 Legend Double Dagger 7.9 7.3 96 35 22 6.4 100.26     Rain Showers,Fog
19:00 Legend Double Dagger 7.8 7.2 96 1 17 8.1 100.29     Drizzle,Fog
20:00 Legend Double Dagger 7.7 6.8 94 1 18 9.7 100.30     Fog
21:00 Legend Double Dagger 7.3 6.9 97 35 20 10.0 100.32     Drizzle
22:00 Legend Double Dagger 7.2 6.8 97 35 18 10.0 100.27     Drizzle
23:00 Legend Double Dagger 7.3 6.7 96 35 26 10.0 100.25     Cloudy

Notes on Data Quality.

Legend

  • E = Estimated
  • M = Missing
  • NA = Not Available
  • ‡ = Partner data that is not subject to review by the National Climate Archives
Date modified: